Copper Mountain, CO

9:18 AM MST on January 17, 2018 (GMT -0700)
Copper Mountain

Weather History for KCCU - December, 2013

Change the Weather History Date:

Tuesday, December 3, 2013

  Actual Average Record
Temperature  
Mean Temperature 25 °F -  
Max Temperature 26 °F - 37 °F (2017)
Min Temperature 24 °F - -9 °F (2006)
Degree Days  
Heating Degree Days 40    
Month to date heating degree days  
Cooling Degree Days 0    
Month to date cooling degree days  
Moisture  
Dew Point 17 °F    
Average Humidity 71    
Maximum Humidity 80    
Minimum Humidity 55    
Precipitation  
Precipitation 0.00 in - 0.00 in (2018)
Snow  
Snow 0.00 in - - ()
Snow Depth -    
Sea Level Pressure  
Sea Level Pressure 29.60 in    
Wind  
Wind Speed 21 mph (SSW)    
Max Wind Speed 29 mph    
Max Gust Speed 41 mph    
Visibility 2 miles    
Events Snow    
T = Trace of Precipitation, MM = Missing Value Source: NWS Daily Summary

Daily Weather History Graph

Daily Weather History Graph

Search for Another Location

Airport or City:

Trip Planner

Search our weather history database for the weather conditions in past years. The results will help you decide how hot, cold, wet, or windy it might be!

Date:

Astronomy

Dec. 03, 2013 Rise Set
Actual Time 7:08 AM MST 4:40 PM MST
Civil Twilight 6:38 AM MST 5:10 PM MST
Nautical Twilight 6:04 AM MST 5:44 PM MST
Astronomical Twilight 5:32 AM MST 6:16 PM MST
Moon 7:40 AM MST (12/3) 5:47 PM MST (12/3)
Length of Visible Light 10h 32m
Length of Day
9h 32m
New Moon, 1% of the Moon is Illuminated
Dec 3
New Moon
Dec 9
First Quarter
Dec 17
Full
Dec 25
Last Quarter
Jan 1
New

Hourly Weather History & Observations

Time (MST) Temp. Windchill Dew Point Humidity Pressure Visibility Wind Dir Wind Speed Gust Speed Precip Events Conditions
12:15 AM 26.6 °F 11.4 °F 14.0 °F 59% 29.80 in 1.5 mi WSW 25.3 mph 38.0 mph N/A Snow Light Snow
12:35 AM 26.6 °F 12.4 °F 14.0 °F 59% 29.79 in 1.0 mi WSW 21.9 mph 41.4 mph N/A Snow Light Snow
12:55 AM 26.6 °F 10.8 °F 14.0 °F 59% 29.77 in 1.2 mi WSW 27.6 mph 34.5 mph N/A Snow Light Snow
1:15 AM 26.6 °F 13.8 °F 14.0 °F 59% 29.78 in 4.0 mi SW 17.3 mph 32.2 mph N/A Snow Light Snow
1:35 AM 26.6 °F 12.7 °F 14.0 °F 59% 29.78 in 4.0 mi SW 20.7 mph 29.9 mph N/A   Haze
1:55 AM 26.6 °F 12.4 °F 14.0 °F 59% 29.76 in 3.0 mi SW 21.9 mph 31.1 mph N/A Snow Light Snow
2:15 AM 26.6 °F 12.7 °F 14.0 °F 59% 29.77 in 3.0 mi WSW 20.7 mph 36.8 mph N/A   Haze
2:35 AM 26.6 °F 13.1 °F 14.0 °F 59% 29.77 in 3.0 mi SW 19.6 mph 33.4 mph N/A   Haze
2:55 AM 26.6 °F 15.2 °F 12.2 °F 55% 29.75 in 5.0 mi SW 13.8 mph 31.1 mph N/A   Haze
3:15 AM 26.6 °F 13.4 °F 12.2 °F 55% 29.75 in 1.2 mi SW 18.4 mph 29.9 mph N/A Snow Light Snow
3:35 AM 26.6 °F 12.7 °F 12.2 °F 55% 29.72 in 3.0 mi SW 20.7 mph 33.4 mph N/A   Haze
3:55 AM 26.6 °F 12.7 °F 12.2 °F 55% 29.71 in 7.0 mi SW 20.7 mph 31.1 mph N/A   Overcast
4:15 AM 26.6 °F 13.4 °F 12.2 °F 55% 29.70 in 5.0 mi SSW 18.4 mph 27.6 mph N/A   Haze
4:35 AM 26.6 °F 10.6 °F 12.2 °F 55% 29.69 in 7.0 mi WSW 28.8 mph 38.0 mph N/A   Overcast
4:55 AM 26.6 °F 11.4 °F 12.2 °F 55% 29.69 in 3.0 mi WSW 25.3 mph 36.8 mph N/A   Haze
5:15 AM 26.6 °F 12.0 °F 12.2 °F 55% 29.69 in 3.0 mi WSW 23.0 mph 38.0 mph N/A Snow Light Snow
5:35 AM 24.8 °F 11.1 °F 15.8 °F 69% 29.69 in 1.0 mi SW 18.4 mph 28.8 mph N/A Snow Light Snow
5:55 AM 24.8 °F 12.4 °F 17.6 °F 74% 29.67 in 0.8 mi SSW 15.0 mph 25.3 mph N/A Snow Light Snow
6:15 AM 24.8 °F 13.4 °F 15.8 °F 69% 29.67 in 1.8 mi SSW 12.7 mph 27.6 mph N/A Snow Light Snow
6:35 AM 24.8 °F 14.0 °F 14.0 °F 64% 29.67 in 2.0 mi SSW 11.5 mph 25.3 mph N/A Snow Light Snow
6:55 AM 24.8 °F 9.6 °F 14.0 °F 64% 29.66 in 1.5 mi SW 23.0 mph 34.5 mph N/A Snow Light Snow
7:15 AM 24.8 °F 9.6 °F 14.0 °F 64% 29.67 in 1.5 mi SW 23.0 mph 32.2 mph N/A Snow Light Snow
7:35 AM 24.8 °F 10.7 °F 14.0 °F 64% 29.68 in 0.8 mi SW 19.6 mph 33.4 mph N/A Snow Light Snow
7:55 AM 24.8 °F 11.1 °F 17.6 °F 74% 29.66 in 0.2 mi SSW 18.4 mph 31.1 mph N/A Snow Light Snow
8:15 AM 24.8 °F 11.5 °F 17.6 °F 74% 29.67 in 1.0 mi SW 17.3 mph 31.1 mph N/A Snow Light Snow
8:35 AM 24.8 °F 13.4 °F 17.6 °F 74% 29.66 in 0.8 mi SW 12.7 mph 31.1 mph N/A Snow Light Snow
8:55 AM 24.8 °F 12.9 °F 17.6 °F 74% 29.66 in 0.5 mi SSW 13.8 mph 31.1 mph N/A Snow Light Snow
9:15 AM 24.8 °F 11.9 °F 17.6 °F 74% 29.65 in 0.5 mi South 16.1 mph 27.6 mph N/A Snow Light Snow
9:35 AM 24.8 °F 11.9 °F 17.6 °F 74% 29.66 in 0.5 mi South 16.1 mph 26.5 mph N/A Snow Snow
9:55 AM 24.8 °F 12.9 °F 17.6 °F 74% 29.66 in 0.5 mi SSW 13.8 mph 25.3 mph N/A Snow Light Snow
10:15 AM 24.8 °F 12.4 °F 17.6 °F 74% 29.65 in 0.5 mi SSW 15.0 mph 26.5 mph N/A Snow Snow
10:35 AM 24.8 °F 12.4 °F 17.6 °F 74% 29.65 in 0.2 mi SSW 15.0 mph 23.0 mph N/A Snow Snow
10:55 AM 24.8 °F 11.9 °F 17.6 °F 74% 29.63 in 0.2 mi South 16.1 mph 28.8 mph N/A Snow Snow
11:15 AM 24.8 °F 11.9 °F 17.6 °F 74% 29.63 in 0.5 mi SW 16.1 mph 28.8 mph N/A Snow Light Snow
11:35 AM 24.8 °F 11.1 °F 17.6 °F 74% 29.62 in 0.5 mi SW 18.4 mph 28.8 mph N/A Snow Snow
11:55 AM 24.8 °F 10.3 °F 17.6 °F 74% 29.60 in 0.5 mi SW 20.7 mph 26.5 mph N/A Snow Snow
12:15 PM 26.6 °F 14.3 °F 17.6 °F 69% 29.60 in 0.2 mi SSW 16.1 mph 31.1 mph N/A Snow Snow
12:35 PM 26.6 °F 14.3 °F 17.6 °F 69% 29.59 in 0.5 mi SSW 16.1 mph 27.6 mph N/A Snow Light Snow
12:55 PM 26.6 °F 15.2 °F 19.4 °F 74% 29.57 in 1.0 mi South 13.8 mph 26.5 mph N/A Snow Light Snow
1:15 PM 26.6 °F 12.7 °F 19.4 °F 74% 29.57 in 0.8 mi South 20.7 mph 26.5 mph N/A Snow Light Snow
1:35 PM 26.6 °F 13.4 °F 19.4 °F 74% 29.55 in 0.5 mi South 18.4 mph 21.9 mph N/A Snow Snow
1:55 PM 26.6 °F 13.4 °F 19.4 °F 74% 29.55 in 0.5 mi South 18.4 mph 26.5 mph N/A Snow Snow
2:15 PM 26.6 °F 13.4 °F 19.4 °F 74% 29.55 in 0.5 mi South 18.4 mph 27.6 mph N/A Snow Snow
2:35 PM 26.6 °F 12.7 °F 19.4 °F 74% 29.56 in 1.0 mi South 20.7 mph 27.6 mph N/A Snow Light Snow
2:55 PM 26.6 °F 13.4 °F 19.4 °F 74% 29.55 in 0.8 mi South 18.4 mph 26.5 mph N/A Snow Light Snow
3:15 PM 26.6 °F 13.1 °F 19.4 °F 74% 29.56 in 0.5 mi South 19.6 mph 27.6 mph N/A Snow Snow
3:35 PM 26.6 °F 12.7 °F 19.4 °F 74% 29.56 in 0.5 mi SSW 20.7 mph 31.1 mph N/A Snow Snow
3:55 PM 26.6 °F 12.0 °F 19.4 °F 74% 29.56 in 0.5 mi South 23.0 mph 31.1 mph N/A Snow Snow
4:15 PM 26.6 °F 11.7 °F 19.4 °F 74% 29.54 in 0.5 mi South 24.2 mph 29.9 mph N/A Snow Snow
4:35 PM 26.6 °F 12.7 °F 19.4 °F 74% 29.54 in 0.8 mi South 20.7 mph 32.2 mph N/A Snow Light Snow
4:55 PM 24.8 °F 10.0 °F 19.4 °F 80% 29.53 in 0.5 mi South 21.9 mph 27.6 mph N/A Snow Snow
5:15 PM 24.8 °F 10.7 °F 19.4 °F 80% 29.54 in 0.5 mi South 19.6 mph - N/A Snow Snow
5:35 PM 24.8 °F 9.3 °F 19.4 °F 80% 29.51 in 0.5 mi South 24.2 mph 28.8 mph N/A Snow Light Snow
5:55 PM 24.8 °F 9.3 °F 19.4 °F 80% 29.49 in 0.5 mi SSE 24.2 mph 33.4 mph N/A Snow Snow
6:15 PM 24.8 °F 9.0 °F 19.4 °F 80% 29.53 in 0.5 mi South 25.3 mph 33.4 mph N/A Snow Snow
6:35 PM 24.8 °F 8.7 °F 19.4 °F 80% 29.52 in 0.5 mi South 26.5 mph 29.9 mph N/A Snow Snow
6:55 PM 24.8 °F 8.7 °F 19.4 °F 80% 29.52 in 0.5 mi South 26.5 mph 31.1 mph N/A Snow Snow
7:15 PM 24.8 °F 10.3 °F 19.4 °F 80% 29.53 in 0.5 mi South 20.7 mph 29.9 mph N/A Snow Snow
7:35 PM 24.8 °F 10.0 °F 19.4 °F 80% 29.52 in 0.8 mi South 21.9 mph - N/A Snow Light Snow
7:55 PM 24.8 °F 10.3 °F 19.4 °F 80% 29.51 in 1.2 mi South 20.7 mph 27.6 mph N/A Snow Light Snow
8:15 PM 24.8 °F 10.3 °F 19.4 °F 80% 29.48 in 0.8 mi SSE 20.7 mph 27.6 mph N/A Snow Light Snow
8:35 PM 24.8 °F 11.1 °F 19.4 °F 80% 29.48 in 1.5 mi South 18.4 mph 29.9 mph N/A Snow Light Snow
8:55 PM 24.8 °F 10.3 °F 19.4 °F 80% 29.45 in 2.0 mi South 20.7 mph 29.9 mph N/A Snow Light Snow
9:15 PM 24.8 °F 10.3 °F 17.6 °F 74% 29.44 in 3.0 mi South 20.7 mph 28.8 mph N/A Snow Light Snow
9:35 PM 26.6 °F 11.7 °F 17.6 °F 69% 29.43 in 3.0 mi South 24.2 mph 31.1 mph N/A Snow Light Snow
9:55 PM 24.8 °F 9.3 °F 17.6 °F 74% 29.44 in 1.5 mi SSE 24.2 mph 35.7 mph N/A Snow Light Snow
10:15 PM 24.8 °F 9.6 °F 19.4 °F 80% 29.44 in 1.5 mi South 23.0 mph 32.2 mph N/A Snow Light Snow
10:35 PM 24.8 °F 11.5 °F 19.4 °F 80% 29.43 in 1.5 mi South 17.3 mph 33.4 mph N/A Snow Light Snow
10:55 PM 24.8 °F 10.3 °F 19.4 °F 80% 29.43 in 1.5 mi South 20.7 mph 32.2 mph N/A Snow Light Snow
11:15 PM 24.8 °F 9.3 °F 19.4 °F 80% 29.42 in 1.0 mi South 24.2 mph 33.4 mph N/A Snow Light Snow
11:35 PM 24.8 °F 10.3 °F 19.4 °F 80% 29.41 in 1.0 mi South 20.7 mph 33.4 mph N/A Snow Light Snow
11:55 PM 24.8 °F 9.0 °F 19.4 °F 80% 29.40 in 0.8 mi South 25.3 mph 33.4 mph N/A Snow Light Snow